timestamp,surface_pressure_avg,surface_temp_avg,battery_voltage,lat,long
2020-08-25 00:09:01+00:00,219.0165,19.29,12.97,47.84626,-54.09684
2020-08-25 00:19:01+00:00,220.9031,19.28,12.81,47.84626,-54.09684
2020-08-25 00:29:01+00:00,225.2932,19.24,12.81,47.84626,-54.09684
2020-08-25 00:39:01+00:00,229.3131,19.2,12.81,47.84626,-54.09684
2020-08-25 00:49:01+00:00,233.8348,19.2,12.81,47.84626,-54.09684
2020-08-25 00:59:01+00:00,238.7997,19.2,12.81,47.84626,-54.09684
2020-08-25 01:09:01+00:00,242.8231,19.1,12.81,47.84626,-54.09684
2020-08-25 01:19:01+00:00,247.0564,19.0,12.73,47.84626,-54.09684
2020-08-25 01:29:01+00:00,252.3398,19.09,12.73,47.84626,-54.09684
2020-08-25 01:39:01+00:00,258.3614,19.1,12.73,47.84626,-54.09684
2020-08-25 01:49:01+00:00,263.9981,19.1,12.73,47.84626,-54.09684
2020-08-25 01:59:01+00:00,270.2931,18.9,12.73,47.84626,-54.09684
2020-08-25 02:09:01+00:00,278.678,19.02,12.73,47.84626,-54.09684
2020-08-25 02:19:01+00:00,288.3597,19.1,12.73,47.84626,-54.09684
2020-08-25 02:29:01+00:00,297.7247,19.0,12.73,47.84626,-54.09684
2020-08-25 02:39:01+00:00,305.77299999999997,18.9,12.73,47.84626,-54.09684
2020-08-25 02:49:01+00:00,313.9896,18.7,12.73,47.84626,-54.09684
2020-08-25 02:59:01+00:00,319.3047,18.66,12.73,47.84626,-54.09684
2020-08-25 03:09:01+00:00,320.5214,18.61,12.73,47.84626,-54.09684
2020-08-25 03:19:01+00:00,322.1447,18.68,12.73,47.84626,-54.09684
2020-08-25 03:29:01+00:00,325.888,18.6,12.73,47.84626,-54.09684
2020-08-25 03:39:01+00:00,329.4414,18.6,12.73,47.84626,-54.09684
2020-08-25 03:49:01+00:00,329.0146,18.7,12.73,47.84626,-54.09684
2020-08-25 03:59:01+00:00,330.668,18.7,12.73,47.84626,-54.09684
2020-08-25 04:09:01+00:00,335.3363,18.7,12.73,47.84626,-54.09684
2020-08-25 04:19:01+00:00,336.9879,18.6,12.73,47.84626,-54.09684
2020-08-25 04:29:01+00:00,334.6880000000001,18.58,12.73,47.84626,-54.09684
2020-08-25 04:39:01+00:00,334.8611,18.55,12.73,47.84626,-54.09684
2020-08-25 04:49:01+00:00,339.3830000000001,18.56,12.73,47.84626,-54.09684
2020-08-25 04:59:01+00:00,338.1013,18.59,12.73,47.84626,-54.09684
2020-08-25 05:09:01+00:00,332.9079,18.59,12.73,47.84626,-54.09684
2020-08-25 05:19:01+00:00,332.9263,18.59,12.73,47.84626,-54.09684
2020-08-25 05:29:01+00:00,334.7595,18.6,12.73,47.84626,-54.09684
2020-08-25 05:39:01+00:00,330.2613,18.62,12.73,47.84626,-54.09684
2020-08-25 05:49:01+00:00,323.3197,18.68,12.73,47.84626,-54.09684
2020-08-25 05:59:01+00:00,320.6996,18.69,12.73,47.84626,-54.09684
2020-08-25 06:09:01+00:00,317.1764,18.7,12.73,47.84626,-54.09684
2020-08-25 06:19:01+00:00,309.2813,18.7,12.73,47.84626,-54.09684
2020-08-25 06:29:01+00:00,304.3097,18.7,12.73,47.84626,-54.09684
2020-08-25 06:39:01+00:00,298.7063,18.7,12.73,47.84626,-54.09684
2020-08-25 06:49:01+00:00,290.2197,18.7,12.73,47.84626,-54.09684
2020-08-25 06:59:01+00:00,280.9864,18.75,12.73,47.84626,-54.09684
2020-08-25 07:09:01+00:00,274.4047,18.75,12.73,47.84626,-54.09684
2020-08-25 07:19:01+00:00,264.8448,18.8,12.65,47.84626,-54.09684
2020-08-25 07:29:01+00:00,252.6797,18.84,12.65,47.84626,-54.09684
2020-08-25 07:39:01+00:00,245.5131,18.9,12.65,47.84626,-54.09684
2020-08-25 07:49:01+00:00,238.9998,18.9,12.65,47.84626,-54.09684
2020-08-25 07:59:01+00:00,228.5131,18.95,12.65,47.84626,-54.09684
2020-08-25 08:09:01+00:00,218.8614,18.94,12.65,47.84626,-54.09684
2020-08-25 08:19:01+00:00,214.9281,19.0,12.65,47.84626,-54.09684
2020-08-25 08:29:01+00:00,209.4881,19.03,12.65,47.84626,-54.09684
2020-08-25 08:39:01+00:00,202.2731,19.05,12.65,47.84626,-54.09684
2020-08-25 08:49:01+00:00,197.9498,19.0,12.65,47.84626,-54.09684
2020-08-25 08:59:01+00:00,195.3381,19.0,12.65,47.84626,-54.09684
2020-08-25 09:09:01+00:00,191.5631,19.06,12.65,47.84626,-54.09684
2020-08-25 09:19:01+00:00,187.4298,19.1,12.65,47.84626,-54.09684
2020-08-25 09:29:01+00:00,185.8881,19.07,12.65,47.84626,-54.09684
2020-08-25 09:39:01+00:00,185.9282,18.9,12.65,47.84626,-54.09684
2020-08-25 09:49:01+00:00,183.8681,18.95,12.65,47.84626,-54.09684
2020-08-25 09:59:01+00:00,183.5998,19.0,12.65,47.84626,-54.09684
2020-08-25 10:09:01+00:00,186.2998,18.9,12.65,47.84626,-54.09684
2020-08-25 10:19:01+00:00,189.9565,18.9,13.29,47.84626,-54.09684
2020-08-25 10:29:01+00:00,194.6115,18.9,13.29,47.84626,-54.09684
2020-08-25 10:39:01+00:00,198.4215,18.8,13.29,47.84626,-54.09684
2020-08-25 10:49:01+00:00,201.1081,18.7,13.29,47.84626,-54.09684
2020-08-25 10:59:01+00:00,204.5331,18.8,13.29,47.84626,-54.09684
2020-08-25 11:09:01+00:00,209.1082,18.7,13.29,47.84626,-54.09684
2020-08-25 11:19:01+00:00,211.7915,18.7,13.6,47.84626,-54.09684
2020-08-25 11:29:01+00:00,213.3265,18.66,13.6,47.84626,-54.09684
2020-08-25 11:39:01+00:00,215.8748,18.6,13.6,47.84626,-54.09684
2020-08-25 11:49:01+00:00,218.7448,18.6,13.6,47.84626,-54.09684
2020-08-25 11:59:01+00:00,219.3731,18.5,13.6,47.84626,-54.09684
2020-08-25 12:09:01+00:00,222.188,18.4,13.6,47.84626,-54.09684
2020-08-25 12:19:01+00:00,228.1498,18.3,14.48,47.84626,-54.09684
2020-08-25 12:29:01+00:00,230.7631,18.23,14.48,47.84626,-54.09684
2020-08-25 12:39:01+00:00,232.2415,18.3,14.48,47.84626,-54.09684
2020-08-25 12:49:01+00:00,237.7398,18.3,14.48,47.84626,-54.09684
2020-08-25 12:59:01+00:00,245.0814,18.2,14.48,47.84626,-54.09684
2020-08-25 13:09:01+00:00,248.1297,18.2,14.48,47.84626,-54.09684
2020-08-25 13:19:01+00:00,249.5981,18.3,14.48,47.84626,-54.09684
2020-08-25 13:29:01+00:00,254.8414,18.3,14.48,47.84626,-54.09684
2020-08-25 13:39:01+00:00,262.0864,18.3,14.48,47.84626,-54.09684
2020-08-25 13:49:01+00:00,267.0631,18.25,14.48,47.84626,-54.09684
2020-08-25 13:59:01+00:00,273.3898,18.2,14.48,47.84626,-54.09684
2020-08-25 14:09:01+00:00,283.193,18.1,14.48,47.84626,-54.09684
2020-08-25 14:19:01+00:00,292.6946,18.0,14.4,47.84626,-54.09684
2020-08-25 14:29:01+00:00,297.453,17.85,14.4,47.84626,-54.09684
2020-08-25 14:39:01+00:00,304.6013,18.0,14.4,47.84626,-54.09684
2020-08-25 14:49:01+00:00,315.2313,17.79,14.4,47.84626,-54.09684
2020-08-25 14:59:01+00:00,321.0714,17.4,14.4,47.84626,-54.09684
2020-08-25 15:09:01+00:00,323.4713,17.51,14.4,47.84626,-54.09684
2020-08-25 15:19:01+00:00,328.0013,17.7,14.32,47.84626,-54.09684
2020-08-25 15:29:01+00:00,334.9897,17.6,14.32,47.84626,-54.09684
2020-08-25 15:39:01+00:00,337.593,17.5,14.32,47.84626,-54.09684
2020-08-25 15:49:01+00:00,337.9446,17.6,14.32,47.84626,-54.09684
2020-08-25 15:59:01+00:00,341.2297,17.7,14.32,47.84626,-54.09684
2020-08-25 16:09:01+00:00,344.48800000000006,17.69,14.32,47.84626,-54.09684
2020-08-25 16:19:01+00:00,346.7828,17.7,14.24,47.84626,-54.09684
2020-08-25 16:29:01+00:00,346.5996,17.7,14.24,47.84626,-54.09684
2020-08-25 16:39:01+00:00,347.5213,17.7,14.24,47.84626,-54.09684
2020-08-25 16:49:01+00:00,349.4146,17.7,14.24,47.84626,-54.09684
2020-08-25 16:59:01+00:00,349.713,17.7,14.24,47.84626,-54.09684
2020-08-25 17:09:01+00:00,349.1564,17.7,14.24,47.84626,-54.09684
2020-08-25 17:19:01+00:00,349.2195,17.6,14.08,47.84626,-54.09684
2020-08-25 17:29:01+00:00,349.4814,17.59,14.08,47.84626,-54.09684
2020-08-25 17:39:01+00:00,346.7628,17.6,14.08,47.84626,-54.09684
2020-08-25 17:49:01+00:00,347.3414,17.6,14.08,47.84626,-54.09684
2020-08-25 17:59:01+00:00,347.2147,17.59,14.08,47.84626,-54.09684
2020-08-25 18:09:01+00:00,343.2279,17.6,14.08,47.84626,-54.09684
2020-08-25 18:19:01+00:00,336.0396,17.6,13.92,47.84626,-54.09684
2020-08-25 18:29:01+00:00,333.4797,17.68,13.92,47.84626,-54.09684
2020-08-25 18:39:01+00:00,330.2213,17.7,13.92,47.84626,-54.09684
2020-08-25 18:49:01+00:00,324.738,17.7,13.92,47.84626,-54.09684
2020-08-25 18:59:01+00:00,315.6663,17.7,13.92,47.84626,-54.09684
2020-08-25 19:09:01+00:00,307.9797,17.79,13.92,47.84626,-54.09684
2020-08-25 19:19:01+00:00,302.428,17.8,13.68,47.84626,-54.09684
2020-08-25 19:29:01+00:00,294.5814,17.83,13.68,47.84626,-54.09684
2020-08-25 19:39:01+00:00,284.9914,18.0,13.68,47.84626,-54.09684
2020-08-25 19:49:01+00:00,277.0731,17.9,13.68,47.84626,-54.09684
2020-08-25 19:59:01+00:00,270.0464,17.92,13.68,47.84626,-54.09684
2020-08-25 20:09:01+00:00,261.5514,18.0,13.68,47.84626,-54.09684
2020-08-25 20:19:01+00:00,251.2864,18.03,13.6,47.84626,-54.09684
2020-08-25 20:29:01+00:00,242.8864,18.08,13.6,47.84626,-54.09684
2020-08-25 20:39:01+00:00,234.6764,18.1,13.6,47.84626,-54.09684
2020-08-25 20:49:01+00:00,225.0831,18.09,13.6,47.84626,-54.09684
2020-08-25 20:59:01+00:00,217.6931,18.0,13.6,47.84626,-54.09684
2020-08-25 21:09:01+00:00,216.6614,17.9,13.6,47.84626,-54.09684
2020-08-25 21:19:01+00:00,216.5964,17.8,13.53,47.84626,-54.09684
2020-08-25 21:29:01+00:00,211.1082,17.78,13.53,47.84626,-54.09684
2020-08-25 21:39:01+00:00,204.9498,17.8,13.53,47.84626,-54.09684
2020-08-25 21:49:01+00:00,205.4315,17.8,13.53,47.84626,-54.09684
2020-08-25 21:59:01+00:00,204.8448,17.85,13.53,47.84626,-54.09684
2020-08-25 22:09:01+00:00,200.3981,17.9,13.53,47.84626,-54.09684
2020-08-25 22:19:01+00:00,201.2281,17.9,13.21,47.84626,-54.09684
2020-08-25 22:29:01+00:00,205.9298,17.9,13.21,47.84626,-54.09684
2020-08-25 22:39:01+00:00,205.7748,17.9,13.21,47.84626,-54.09684
2020-08-25 22:49:01+00:00,207.2564,17.93,13.21,47.84626,-54.09684
2020-08-25 22:59:01+00:00,212.0264,17.94,13.21,47.84626,-54.09684
2020-08-25 23:09:01+00:00,214.2331,18.0,13.21,47.84626,-54.09684
2020-08-25 23:19:01+00:00,215.1798,18.08,12.89,47.84626,-54.09684
2020-08-25 23:29:01+00:00,216.6948,18.1,12.89,47.84626,-54.09684
2020-08-25 23:39:01+00:00,218.8348,18.1,12.89,47.84626,-54.09684
2020-08-25 23:49:01+00:00,220.3464,18.17,12.89,47.84626,-54.09684
2020-08-25 23:59:01+00:00,221.1681,18.19,12.89,47.84626,-54.09684
